Tracking 29768 objects as of 3-Oct-2024
HD Live streaming from Space Station
objects crossing your sky now

STARLINK-5775

Track STARLINK-5775 now!
10-day predictions
STARLINK-5775 is classified as:


NORAD ID: 56503
Int'l Code: 2023-065A
Perigee: 565.3 km
Apogee: 567.0 km
Inclination: 43.0 °
Period: 95.8 minutes
Semi major axis: 6937 km
RCS: Unknown
Launch date: May 14, 2023
Source: United States (US)
Launch site: AIR FORCE EASTERN TEST RANGE (AFETR)
Your satellite tracking list
Your tracking list is empty




NASA's NSSDC Master Catalog

Two Line Element Set (TLE):
1 56503U 23065A   24277.39475406 -.00003042  00000-0 -21007-3 0  9999
2 56503  43.0058 168.7284 0001247 272.4719  87.5981 15.02556639 78053
Source of the keplerian elements: AFSPC